Herbert Island, British Columbia

4:46 PM PDT on August 23, 2017 (GMT -0700)
Herbert Island

Weather History for CWLP - January, 2013

Change the Weather History Date:

Thursday, January 17, 2013

  Actual Average Record
Temperature  
Mean Temperature 41 °F -  
Max Temperature 43 °F - - ()
Min Temperature 39 °F - - ()
Degree Days  
Heating Degree Days 24    
Moisture  
Dew Point 37 °F    
Average Humidity 85    
Maximum Humidity 92    
Minimum Humidity 75    
Precipitation  
Precipitation 0.00 in - - ()
Sea Level Pressure  
Sea Level Pressure 30.32 in    
Wind  
Wind Speed 20 mph ()    
Max Wind Speed 26 mph    
Max Gust Speed 32 mph    
T = Trace of Precipitation, MM = Missing Value Source: Averaged Metar Reports

Daily Weather History Graph

Daily Weather History Graph

Search for Another Location

Airport or City:

Trip Planner

Search our weather history database for the weather conditions in past years. The results will help you decide how hot, cold, wet, or windy it might be!

Date:

Astronomy

Jan. 17, 2013 Rise Set
Actual Time 8:24 AM PST 4:57 PM PST
Civil Twilight 7:47 AM PST 5:34 PM PST
Nautical Twilight 7:06 AM PST 6:15 PM PST
Astronomical Twilight 6:26 AM PST 6:55 PM PST
Moon 10:45 AM PST (1/17) No Moon Set
Length of Visible Light 9h 47m
Length of Day
8h 32m
Waxing Crescent, 39% of the Moon is Illuminated
Jan 17
Waxing Crescent
Jan 18
First Quarter
Jan 26
Full
Feb 3
Last Quarter
Feb 9
New

Hourly Weather History & Observations

Time (PST) Temp. Windchill Dew Point Humidity Pressure Visibility Wind Dir Wind Speed Gust Speed Precip Events Conditions
12:00 AM 39.4 °F 29.0 °F 37.2 °F 92% 30.45 in - SE 23.0 mph - N/A   Unknown
1:00 AM 39.2 °F 28.3 °F 36.9 °F 91% 30.43 in - SE 25.3 mph - N/A   Unknown
2:00 AM 39.9 °F 29.2 °F 37.8 °F 92% 30.41 in - SE 25.3 mph - N/A   Unknown
3:00 AM 40.1 °F 29.2 °F 37.8 °F 91% 30.39 in - SE 26.5 mph 32.2 mph N/A   Unknown
4:00 AM 40 °F - 37 °F 87% 30.36 in - SE 26.5 mph - -  
4:00 AM 39.9 °F 29.0 °F 37.4 °F 91% 30.36 in - SE 26.5 mph - N/A   Unknown
5:00 AM 39.9 °F 29.2 °F 37.2 °F 90% 30.33 in - SE 25.3 mph - N/A   Unknown
6:00 AM 40.3 °F 29.5 °F 37.2 °F 89% 30.32 in - SE 26.5 mph - N/A   Unknown
7:00 AM 41.2 °F 30.7 °F 37.9 °F 88% 30.31 in - SE 26.5 mph - N/A   Unknown
8:00 AM 40.8 °F 30.9 °F 37.2 °F 87% 30.32 in - SE 23.0 mph 28.8 mph N/A   Unknown
9:00 AM 41.5 °F 31.4 °F 37.0 °F 84% 30.32 in - SE 25.3 mph - N/A   Unknown
10:00 AM 42 °F - 37 °F 75% 30.33 in - SE 25.3 mph - -  
10:00 AM 41.5 °F 31.4 °F 36.9 °F 83% 30.33 in - SE 25.3 mph - N/A   Unknown
11:00 AM 41.5 °F 32.4 °F 36.5 °F 82% 30.34 in - SSE 20.7 mph - N/A   Unknown
12:00 PM 41.7 °F 35.2 °F 36.5 °F 82% 30.34 in - SE 11.5 mph - N/A   Unknown
1:00 PM 42.1 °F 34.9 °F 37.0 °F 82% 30.34 in - SE 13.8 mph - N/A   Unknown
2:00 PM 42.3 °F 35.9 °F 37.2 °F 82% 30.30 in - SE 11.5 mph - N/A   Unknown
3:00 PM 42.4 °F 34.1 °F 37.9 °F 84% 30.26 in - ESE 18.4 mph - N/A   Unknown
4:00 PM 42 °F - 37 °F 76% 30.27 in - ESE 17.3 mph - -  
4:00 PM 42.3 °F 34.1 °F 37.0 °F 82% 30.27 in - ESE 17.3 mph - N/A   Unknown
5:00 PM 42.1 °F 33.9 °F 37.8 °F 85% 30.27 in - ESE 17.3 mph - N/A   Unknown
6:00 PM 42.1 °F 33.6 °F 37.2 °F 83% 30.26 in - SE 18.4 mph - N/A   Unknown
7:00 PM 42.3 °F 33.1 °F 37.8 °F 84% 30.25 in - SE 21.9 mph - N/A   Unknown
8:00 PM 41.7 °F 32.3 °F 36.9 °F 83% 30.25 in - SSE 21.9 mph - N/A   Unknown
9:00 PM 41.5 °F 33.5 °F 36.5 °F 82% 30.26 in - SE 16.1 mph - N/A   Unknown
10:00 PM 41 °F - 37 °F 81% 30.25 in - SE 17.3 mph - -  
10:00 PM 41.4 °F 33.0 °F 37.2 °F 85% 30.25 in - SE 17.3 mph - N/A   Unknown
11:00 PM 41.0 °F 31.6 °F 37.4 °F 87% 30.26 in - SE 20.7 mph - N/A   Unknown